Kecskemet, Hungary

11:48 PM CEST on August 17, 2017 (GMT +0200)
Kecskemet

Weather History for LHKE - May, 2013

Change the Weather History Date:

Saturday, May 11, 2013

  Actual Average (LHBP) Record (LHBP)
Temperature  
Mean Temperature 64 °F -  
Max Temperature 75 °F 70 °F 86 °F (2003)
Min Temperature 53 °F 47 °F 39 °F (2017)
Degree Days  
Heating Degree Days 1    
Growing Degree Days 14 (Base 50)    
Moisture  
Dew Point 54 °F    
Average Humidity 68    
Maximum Humidity 82    
Minimum Humidity 53    
Precipitation  
Precipitation 0.00 in - - ()
Sea Level Pressure  
Sea Level Pressure 29.81 in    
Wind  
Wind Speed 6 mph ()    
Max Wind Speed 18 mph    
Max Gust Speed 31 mph    
Visibility 5.5 miles    
Events Rain , Thunderstorm    
Averages and records for this station are not official NWS values.
T = Trace of Precipitation, MM = Missing Value Source: Averaged Metar Reports

Daily Weather History Graph

Daily Weather History Graph

Search for Another Location

Airport or City:

Trip Planner

Search our weather history database for the weather conditions in past years. The results will help you decide how hot, cold, wet, or windy it might be!

Date:

Astronomy

May. 11, 2013 Rise Set
Actual Time 5:11 AM CEST 8:04 PM CEST
Civil Twilight 4:35 AM CEST 8:39 PM CEST
Nautical Twilight 3:50 AM CEST 9:25 PM CEST
Astronomical Twilight 2:56 AM CEST 10:19 PM CEST
Moon 6:03 AM CEST (5/11) 9:31 PM CEST (5/11)
Length of Visible Light 16h 04m
Length of Day
14h 53m
New Moon, 2% of the Moon is Illuminated
May 11
New Moon
May 18
First Quarter
May 25
Full
May 31
Last Quarter
Jun 8
New

Hourly Weather History & Observations

Time (CEST) Temp. Dew Point Humidity Pressure Visibility Wind Dir Wind Speed Gust Speed Precip Events Conditions
12:45 AM 62.6 °F 48.2 °F 59% 29.89 in - South 4.5 mph - N/A   Clear
1:15 AM 60.8 °F 48.2 °F 63% 29.89 in - SSE 4.5 mph - N/A   Clear
1:45 AM 60.8 °F 48.2 °F 63% 29.86 in - SSE 4.5 mph - N/A   Clear
2:15 AM 60.8 °F 48.2 °F 63% 29.86 in - SE 6.7 mph - N/A   Clear
2:45 AM 60.8 °F 48.2 °F 63% 29.86 in - SE 6.7 mph - N/A   Clear
3:15 AM 59.0 °F 48.2 °F 67% 29.86 in - SSE 2.2 mph - N/A   Clear
3:45 AM - - N/A% - 6.2 mi Variable 4.5 mph - N/A Rain , Thunderstorm Light Rain Showers
4:15 AM 55.4 °F 48.2 °F 77% 29.83 in - ESE 8.9 mph - N/A   Clear
4:45 AM 55.4 °F 48.2 °F 77% 29.83 in - ESE 2.2 mph - N/A   Clear
5:15 AM 55.4 °F 50.0 °F 82% 29.83 in - SE 2.2 mph - N/A   Clear
5:45 AM 53.6 °F 48.2 °F 82% 29.83 in - East 2.2 mph - N/A   Clear
6:45 AM - - N/A% - 3.1 mi Variable 4.5 mph - N/A Rain , Thunderstorm Rain Showers
7:15 AM 59.0 °F 53.6 °F 82% 29.83 in - ENE 4.5 mph - N/A   Clear
7:45 AM 60.8 °F 53.6 °F 77% 29.83 in - NE 4.5 mph - N/A   Clear
8:45 AM 64.4 °F 53.6 °F 68% 29.86 in 6.2 mi Variable 4.5 mph - N/A   Scattered Clouds
9:15 AM 66.2 °F 53.6 °F 64% 29.86 in - SW 4.5 mph - N/A   Clear
9:45 AM - - N/A% - 3.1 mi Variable 4.5 mph - N/A Rain , Thunderstorm Rain Showers
10:15 AM 68.0 °F 55.4 °F 64% 29.83 in - Variable 4.5 mph - N/A   Clear
10:45 AM 69.8 °F 57.2 °F 64% 29.83 in - Variable 4.5 mph - N/A   Clear
11:15 AM 71.6 °F 57.2 °F 60% 29.83 in 6.2 mi Variable 4.5 mph - N/A   Scattered Clouds
11:45 AM 71.6 °F 57.2 °F 60% 29.83 in 6.2 mi SSE 4.5 mph - N/A   Scattered Clouds
12:15 PM 73.4 °F 59.0 °F 61% 29.83 in 6.2 mi SE 4.5 mph - N/A   Scattered Clouds
12:45 PM - - N/A% - 3.1 mi Variable 4.5 mph - N/A Rain , Thunderstorm Rain Showers
1:15 PM 73.4 °F 59.0 °F 61% 29.80 in 6.2 mi SE 4.5 mph - N/A   Scattered Clouds
1:45 PM 75.2 °F 57.2 °F 53% 29.80 in 6.2 mi SE 4.5 mph - N/A   Mostly Cloudy
2:15 PM 75.2 °F 57.2 °F 53% 29.80 in 6.2 mi East 4.5 mph - N/A   Scattered Clouds
2:45 PM 75.2 °F 57.2 °F 53% 29.77 in 6.2 mi East 4.5 mph - N/A   Scattered Clouds
3:15 PM 75.2 °F 57.2 °F 53% 29.77 in 6.2 mi ESE 4.5 mph - N/A   Scattered Clouds
3:45 PM - - N/A% - 3.1 mi Variable 4.5 mph - N/A Rain , Thunderstorm Rain Showers
4:15 PM 75.2 °F 57.2 °F 53% 29.77 in 6.2 mi WNW 8.9 mph - N/A   Scattered Clouds
4:45 PM 75.2 °F 59.0 °F 57% 29.74 in 6.2 mi WNW 8.9 mph - N/A   Scattered Clouds
5:15 PM 73.4 °F 59.0 °F 61% 29.74 in 6.2 mi WNW 11.2 mph - N/A   Scattered Clouds
5:45 PM 73.4 °F 57.2 °F 57% 29.74 in 6.2 mi WNW 11.2 mph - N/A   Partly Cloudy
6:15 PM 71.6 °F 57.2 °F 60% 29.74 in - WNW 13.4 mph - N/A   Clear
6:45 PM - - N/A% - 3.1 mi NW 11.2 mph - N/A Rain , Thunderstorm Rain Showers
7:15 PM 68.0 °F 55.4 °F 64% 29.77 in - ESE 13.4 mph - N/A   Clear
7:45 PM 66.2 °F 55.4 °F 68% 29.77 in - ESE 11.2 mph - N/A   Clear
8:15 PM 66.2 °F 55.4 °F 68% 29.77 in - WNW 8.9 mph - N/A   Clear
8:45 PM 64.4 °F 55.4 °F 73% 29.77 in - WNW 8.9 mph - N/A   Clear
9:07 PM 62.6 °F 55.4 °F 77% 29.77 in 6.2 mi WNW 11.2 mph - N/A Rain Light Rain Showers
9:15 PM 62.6 °F 55.4 °F 77% 29.77 in 6.2 mi NW 11.2 mph - N/A   Mostly Cloudy
9:45 PM - - N/A% - 3.1 mi NW 11.2 mph - N/A Rain , Thunderstorm Rain Showers
10:15 PM 60.8 °F 55.4 °F 82% 29.80 in - West 13.4 mph - N/A   Clear
10:45 PM 60.8 °F 55.4 °F 82% 29.80 in 6.2 mi WNW 13.4 mph - N/A   Mostly Cloudy
11:09 PM 60.8 °F 55.4 °F 82% 29.80 in 6.2 mi WSW 17.9 mph 31.3 mph N/A Thunderstorm Thunderstorm
11:14 PM 60.8 °F 55.4 °F 82% 29.83 in 6.2 mi West 17.9 mph - N/A Rain , Thunderstorm Light Thunderstorms and Rain
11:15 PM 60.8 °F 53.6 °F 77% 29.83 in 6.2 mi West 17.9 mph 29.1 mph N/A Rain , Thunderstorm Light Thunderstorms and Rain
11:35 PM 59.0 °F 53.6 °F 82% 29.80 in 6.2 mi WNW 17.9 mph - N/A   Mostly Cloudy
11:45 PM 59.0 °F 53.6 °F 82% 29.80 in 6.2 mi NW 15.7 mph - N/A   Scattered Clouds